Regional Weather Roundup
Issued by NWS

Home | Current Version | Previous Version | Graphics & Text | Print | Product List | Glossary On
Versions: 1 2 3 4 5 6 7 8 9 10 11 12 13 14 15 16 17 18 19 20 21 22 23 24 25 26 27 28 29 30 31 32 33 34 35 36 37 38 39 40 41 42 43 44 45 46 47 48 49 50
000
ASUS43 KFSD 081510
RWRSD

WEATHER ROUNDUP FOR SOUTH DAKOTA
NATIONAL WEATHER SERVICE SIOUX FALLS SD
900 AM CST THU DEC 08 2016

NOTE: "FAIR" INDICATES FEW OR NO CLOUDS BELOW 12,000 FEET WITH NO
SIGNIFICANT WEATHER AND/OR OBSTRUCTIONS TO VISIBILITY.


SDZ001>005-009-010-012>017-081600-
NORTHWEST AND NORTH CENTRAL SOUTH DAKOTA

CITY           SKY/WX    TMP DP  RH WIND       PRES   REMARKS
BUFFALO          N/A     -7 -12  79 W10       30.48R WCI -25
FAITH            N/A     -5  -8  87 NW10      30.59S WCI -23
MOBRIDGE       CLOUDY     3  -5  69 NW18G28   30.58R WCI -17
$$

SDZ012>016-024>037-041>051-057-063-072>074-081600-
SOUTHWEST AND SOUTH CENTRAL SOUTH DAKOTA

CITY           SKY/WX    TMP DP  RH WIND       PRES   REMARKS
RAPID CTY ARPT CLEAR     -1  -9  68 CALM      30.57R
PIERRE         PTCLDY     5  -1  76 NW23      30.62R WCI -17
CUSTER         CLOUDY    -5 -15  62 NW5       30.32R WCI -16
ELLSWORTH AFB  CLEAR     -1  -9  69 CALM      30.55R
PHILIP         CLEAR      0  -7  72 W8        30.66R WCI -14
PINE RIDGE     CLOUDY   -15 -19  82 CALM      30.58R
SPEARFISH      FAIR      -2 -13  60 W10       30.49S WCI -19
WINNER         CLOUDY     7  -2  66 NW13G23   30.63R WCI  -9
$$

SDZ004>011-016>023-039-040-081600-
NORTHEAST SOUTH DAKOTA

CITY           SKY/WX    TMP DP  RH WIND       PRES   REMARKS
ABERDEEN       CLOUDY     9   1  70 NW18      30.57R WCI -10
WATERTOWN      CLOUDY     7   2  80 NW20      30.48R HAZE    WCI -13
BROOKINGS      FLURRIES   7   3  84 NW20      30.48R WCI -13
SISSETON         N/A     11   4  73 NW24      30.47R WCI  -9
$$

SDZ017-020-022-023-036>040-048>070-081600-
SOUTHEAST SOUTH DAKOTA

CITY           SKY/WX    TMP DP  RH WIND       PRES   REMARKS
SIOUX FALLS    PTCLDY     9   4  80 NW22G30   30.52R WCI -11
HURON          PTCLDY     7   1  76 NW18      30.60R WCI -12
CHAMBERLAIN    MOCLDY     9   2  73 W17G23    30.63R WCI  -9
MITCHELL       CLEAR      9   2  73 NW22G30   30.63R WCI -11
YANKTON        CLEAR    N/A N/A N/A NW24G30   30.59R
$$

ABBREVIATIONS USED IN REMARKS
   TC - TEMPERATURE IN CELSIUS
  WCI - WIND CHILL INDEX
   HX - HEAT INDEX
  VSB - VISIBILITY





USA.gov is the U.S. government's official web portal to all federal, state and local government web resources and services.